Weather in Vikulovo

Russia / Tyumen Oblast     56°48′56″N   70°36′17″E
temp.,
°C
wind,
m/s
gust,
m/s
humid.,
%
clouds,
%
prec.,
mm/h
press.,
hPa
HPBL,
m
25 january, mon
mon2523:00−30sse4893100 0.0 1042240
02:00−28sse5998100 0.1 1038266
05:00−27sse5998100 0.9 1036292
08:00−26se5898100 0.6 1035305
11:00−25se4695100 0.6 1035275
14:00−24se3496100 0.0 1034250
17:00−24ese3496100 0.0 1034142
20:00−26se3496100 0.0 103567
26 january, tue
tue2623:00−25sse3597100 0.0 1034101
02:00−22sse4796100 0.0 1033208
05:00−20sse4798100 0.4 1031239
08:00−17sse5896100 0.6 1030253
11:00−13s4795100 1.3 1028237
14:00−8s469594 0.1 1027224
17:00−2wsw499493 0.3 1026476
20:00−2wsw51094100 0.1 1026411
27 january, wed
wed2723:00−2wsw51093100 0.1 1025427
02:00−4wsw61193100 0.1 1024425
05:00−6wsw51194100 0.1 1024408
08:00−4w61193100 0.1 1024629
11:00−4w61091100 0.1 1024738
14:00−4w6993100 0.1 1025573
17:00−5w599399 0.1 1025487
20:00−5wsw4893100 0.1 1026406
28 january, thu
thu2823:00−7wsw4895100 0.1 1026281
02:00−10wsw489597 0.0 1026184
05:00−11sw499587 0.1 1026146
08:00−8sw5129355 0.0 1025283
11:00−6sw7158877 0.0 1024445
14:00−4wsw71486100 0.0 1023584
17:00−4wsw61388100 0.0 1022544
20:00−4wsw61389100 0.0 1022532
29 january, fri
fri2923:00−4wsw61289100 0.0 1022489
02:00−4wsw61290100 0.0 1021439
05:00−5wsw61290100 0.0 1021439
08:00−5wsw51092100 0.0 1021417
11:00−5w51092100 0.0 1023472
14:00−4w5793100 0.1 1025541
17:00−5n5895100 0.2 1028297
20:00−16nne5894100 0.1 1031294